Weatherford, OK

10:10 PM CDT on May 23, 2017 (GMT -0500)
Weatherford

Weather History for KOJA - February, 2014

Change the Weather History Date:

Thursday, February 6, 2014

  Actual Average (KJWG) Record (KJWG)
Temperature  
Mean Temperature 10 °F -  
Max Temperature 12 °F 46 °F 75 °F (2017)
Min Temperature 8 °F 22 °F 2 °F (1982)
Degree Days  
Heating Degree Days 55    
Moisture  
Dew Point 5 °F    
Average Humidity 79    
Maximum Humidity 85    
Minimum Humidity 73    
Precipitation  
Precipitation 0.00 in - - ()
Sea Level Pressure  
Sea Level Pressure 30.50 in    
Wind  
Wind Speed 12 mph (NE)    
Max Wind Speed 18 mph    
Max Gust Speed 20 mph    
Visibility 8 miles    
Events Snow    
Averages and records for this station are not official NWS values.
T = Trace of Precipitation, MM = Missing Value Source: NWS Daily Summary

Daily Weather History Graph

Daily Weather History Graph

Search for Another Location

Airport or City:

Trip Planner

Search our weather history database for the weather conditions in past years. The results will help you decide how hot, cold, wet, or windy it might be!

Date:

Astronomy

Feb. 06, 2014 Rise Set
Actual Time 7:30 AM CST 6:07 PM CST
Civil Twilight 7:03 AM CST 6:34 PM CST
Nautical Twilight 6:33 AM CST 7:04 PM CST
Astronomical Twilight 6:03 AM CST 7:34 PM CST
Moon 11:41 AM CST (2/6) 12:47 AM CST (2/6)
Length of Visible Light 11h 30m
Length of Day
10h 37m
Waxing Crescent, 49% of the Moon is Illuminated
Feb 6
Waxing Crescent
Feb 6
First Quarter
Feb 14
Full
Feb 22
Last Quarter
Mar 1
New

Hourly Weather History & Observations

Time (CST) Temp. Windchill Dew Point Humidity Pressure Visibility Wind Dir Wind Speed Gust Speed Precip Events Conditions
12:15 AM 10.4 °F -7.2 °F 3.2 °F 73% 30.58 in 7.0 mi NNE 17.3 mph - N/A Snow Light Snow
12:35 AM 10.4 °F -7.7 °F 3.2 °F 73% 30.58 in 4.0 mi NNE 18.4 mph - N/A Snow Light Snow
12:55 AM 10.4 °F -6.6 °F 5.0 °F 79% 30.58 in 3.0 mi NNE 16.1 mph - N/A Snow Light Snow
1:15 AM 8.6 °F -8.3 °F 5.0 °F 85% 30.58 in 2.5 mi NNE 15.0 mph 19.6 mph N/A Snow Light Snow
1:35 AM 8.6 °F -8.3 °F 3.2 °F 79% 30.59 in 3.0 mi NNE 15.0 mph 19.6 mph N/A Snow Light Snow
1:55 AM 8.6 °F -5.5 °F 5.0 °F 85% 30.59 in 2.5 mi NNE 10.4 mph - N/A Snow Light Snow
2:15 AM 8.6 °F -7.0 °F 5.0 °F 85% 30.59 in 2.0 mi North 12.7 mph - N/A Snow Light Snow
2:35 AM 8.6 °F -7.7 °F 5.0 °F 85% 30.58 in 2.5 mi NNE 13.8 mph - N/A Snow Light Snow
2:55 AM 8.6 °F -7.7 °F 5.0 °F 85% 30.58 in 2.5 mi NNE 13.8 mph - N/A Snow Light Snow
3:15 AM 8.6 °F -7.7 °F 3.2 °F 79% 30.58 in 2.0 mi NNE 13.8 mph - N/A Snow Light Snow
3:35 AM 8.6 °F -8.3 °F 5.0 °F 85% 30.58 in 2.0 mi NNE 15.0 mph - N/A Snow Light Snow
3:55 AM 8.6 °F -5.5 °F 5.0 °F 85% 30.58 in 2.5 mi NNE 10.4 mph - N/A Snow Light Snow
4:15 AM 8.6 °F -7.0 °F 3.2 °F 79% 30.57 in 3.0 mi NNE 12.7 mph - N/A Snow Light Snow
4:35 AM 8.6 °F -6.3 °F 5.0 °F 85% 30.57 in 2.0 mi NNE 11.5 mph - N/A Snow Light Snow
4:55 AM 8.6 °F -6.3 °F 3.2 °F 79% 30.56 in 4.0 mi NNE 11.5 mph - N/A Snow Light Snow
5:15 AM 8.6 °F -7.0 °F 3.2 °F 79% 30.55 in 7.0 mi NNE 12.7 mph - N/A Snow Light Snow
5:35 AM 8.6 °F -7.7 °F 3.2 °F 79% 30.55 in 7.0 mi NNE 13.8 mph - N/A Snow Light Snow
5:55 AM 8.6 °F -7.7 °F 3.2 °F 79% 30.55 in 7.0 mi NE 13.8 mph - N/A   Overcast
6:15 AM 8.6 °F -6.3 °F 3.2 °F 79% 30.56 in 7.0 mi NNE 11.5 mph - N/A   Overcast
6:35 AM 8.6 °F -5.5 °F 3.2 °F 79% 30.56 in 7.0 mi NNE 10.4 mph - N/A Snow Light Snow
6:55 AM 8.6 °F -7.0 °F 3.2 °F 79% 30.56 in 4.0 mi NNE 12.7 mph - N/A Snow Light Snow
7:15 AM 8.6 °F -4.7 °F 3.2 °F 79% 30.56 in 7.0 mi NNE 9.2 mph - N/A   Mostly Cloudy
7:35 AM 8.6 °F -4.7 °F 3.2 °F 79% 30.56 in 10.0 mi NE 9.2 mph - N/A   Scattered Clouds
7:55 AM 8.6 °F -6.3 °F 3.2 °F 79% 30.56 in 10.0 mi NNE 11.5 mph - N/A   Mostly Cloudy
8:15 AM 8.6 °F -5.5 °F 3.2 °F 79% 30.56 in 10.0 mi NNE 10.4 mph - N/A   Overcast
8:35 AM 8.6 °F -7.0 °F 3.2 °F 79% 30.58 in 10.0 mi NNE 12.7 mph - N/A   Overcast
8:55 AM 8.6 °F -5.5 °F 3.2 °F 79% 30.57 in 10.0 mi NE 10.4 mph 16.1 mph N/A   Overcast
9:15 AM 8.6 °F -5.5 °F 3.2 °F 79% 30.56 in 10.0 mi NE 10.4 mph - N/A   Overcast
9:35 AM 8.6 °F -7.0 °F 3.2 °F 79% 30.56 in 10.0 mi NE 12.7 mph - N/A   Overcast
9:55 AM 10.4 °F -4.8 °F 3.2 °F 73% 30.57 in 10.0 mi NE 12.7 mph - N/A   Overcast
10:15 AM 10.4 °F -4.8 °F 3.2 °F 73% 30.57 in 10.0 mi ENE 12.7 mph 17.3 mph N/A   Overcast
10:35 AM 10.4 °F -2.4 °F 5.0 °F 79% 30.58 in 10.0 mi NE 9.2 mph - N/A   Overcast
10:55 AM 10.4 °F -2.4 °F 5.0 °F 79% 30.57 in 7.0 mi NE 9.2 mph - N/A   Overcast
11:15 AM 10.4 °F -4.1 °F 5.0 °F 79% 30.55 in 10.0 mi NNE 11.5 mph - N/A   Overcast
11:35 AM 10.4 °F -2.4 °F 5.0 °F 79% 30.57 in 10.0 mi NE 9.2 mph - N/A   Overcast
11:55 AM 12.2 °F -0.2 °F 5.0 °F 73% 30.56 in 10.0 mi NNE 9.2 mph - N/A   Overcast
12:15 PM 12.2 °F -0.2 °F 5.0 °F 73% 30.55 in 10.0 mi NNE 9.2 mph - N/A   Overcast
12:35 PM 12.2 °F -0.2 °F 5.0 °F 73% 30.52 in 10.0 mi NE 9.2 mph - N/A   Overcast
12:55 PM 12.2 °F 1.7 °F 5.0 °F 73% 30.52 in 10.0 mi NNE 6.9 mph - N/A   Overcast
1:15 PM 12.2 °F 0.7 °F 5.0 °F 73% 30.50 in 10.0 mi NNE 8.1 mph - N/A   Unknown
1:35 PM 12.2 °F -1.0 °F 5.0 °F 73% 30.48 in 10.0 mi NNE 10.4 mph - N/A   Overcast
1:55 PM 12.2 °F -0.2 °F 5.0 °F 73% 30.47 in 10.0 mi NE 9.2 mph - N/A   Overcast
2:15 PM 12.2 °F 0.7 °F 5.0 °F 73% 30.45 in - NE 8.1 mph - N/A   Unknown
2:35 PM 12.2 °F -0.2 °F 5.0 °F 73% 30.44 in 10.0 mi ENE 9.2 mph - N/A   Overcast
2:55 PM 12.2 °F 0.7 °F 6.8 °F 79% 30.44 in 10.0 mi NE 8.1 mph - N/A   Overcast
3:15 PM 12.2 °F 0.7 °F 6.8 °F 79% 30.43 in 10.0 mi NNE 8.1 mph - N/A   Overcast
3:35 PM 12.2 °F 1.7 °F 6.8 °F 79% 30.43 in 10.0 mi NE 6.9 mph - N/A   Overcast
3:55 PM 12.2 °F 1.7 °F 6.8 °F 79% 30.43 in 10.0 mi ENE 6.9 mph - N/A   Overcast
4:15 PM 12.2 °F 1.7 °F 6.8 °F 79% 30.43 in 10.0 mi ENE 6.9 mph - N/A   Overcast
4:35 PM 12.2 °F 0.7 °F 6.8 °F 79% 30.42 in 10.0 mi ENE 8.1 mph - N/A   Mostly Cloudy
4:55 PM 12.2 °F 1.7 °F 6.8 °F 79% 30.42 in 10.0 mi NE 6.9 mph - N/A   Overcast
5:15 PM 12.2 °F 0.7 °F 6.8 °F 79% 30.42 in 10.0 mi NNE 8.1 mph - N/A   Overcast
5:35 PM 12.2 °F 0.7 °F 6.8 °F 79% 30.42 in 10.0 mi ENE 8.1 mph - N/A   Overcast
5:55 PM 12.2 °F 0.7 °F 6.8 °F 79% 30.41 in 10.0 mi ENE 8.1 mph - N/A   Overcast
6:15 PM 12.2 °F -0.2 °F 6.8 °F 79% 30.41 in 10.0 mi ENE 9.2 mph - N/A   Overcast
6:35 PM 12.2 °F 1.7 °F 6.8 °F 79% 30.41 in 10.0 mi ENE 6.9 mph - N/A   Overcast
6:55 PM 12.2 °F 2.9 °F 6.8 °F 79% 30.43 in 10.0 mi ENE 5.8 mph - N/A   Overcast
7:15 PM 12.2 °F 2.9 °F 6.8 °F 79% 30.42 in 10.0 mi East 5.8 mph - N/A   Scattered Clouds
7:35 PM 12.2 °F 2.9 °F 6.8 °F 79% 30.42 in 10.0 mi ENE 5.8 mph - N/A   Clear
7:55 PM 12.2 °F 1.7 °F 5.0 °F 73% 30.41 in 10.0 mi ENE 6.9 mph - N/A   Clear
8:15 PM 12.2 °F 2.9 °F 6.8 °F 79% 30.40 in 10.0 mi ENE 5.8 mph - N/A   Clear
8:35 PM 10.4 °F 2.2 °F 6.8 °F 85% 30.40 in 10.0 mi NE 4.6 mph - N/A   Clear
8:55 PM 10.4 °F 2.2 °F 6.8 °F 85% 30.41 in 10.0 mi NE 4.6 mph - N/A   Mostly Cloudy
9:15 PM 10.4 °F 0.8 °F 6.8 °F 85% 30.40 in 10.0 mi NE 5.8 mph - N/A   Scattered Clouds
9:35 PM 10.4 °F -0.4 °F 6.8 °F 85% 30.38 in 10.0 mi NE 6.9 mph - N/A   Clear
9:55 PM 10.4 °F 0.8 °F 5.0 °F 79% 30.39 in 10.0 mi ENE 5.8 mph - N/A   Clear
10:15 PM 10.4 °F 2.2 °F 5.0 °F 79% 30.40 in 10.0 mi NE 4.6 mph - N/A   Scattered Clouds
10:35 PM 10.4 °F 4.0 °F 6.8 °F 85% 30.40 in 10.0 mi ENE 3.5 mph - N/A   Overcast
10:55 PM 10.4 °F 2.2 °F 5.0 °F 79% 30.39 in 10.0 mi ENE 4.6 mph - N/A   Overcast
11:15 PM 10.4 °F 4.0 °F 6.8 °F 85% 30.39 in 10.0 mi East 3.5 mph - N/A   Overcast
11:35 PM 10.4 °F 4.0 °F 6.8 °F 85% 30.38 in 10.0 mi East 3.5 mph - N/A   Overcast
11:55 PM 10.4 °F 2.2 °F 5.0 °F 79% 30.37 in 10.0 mi ENE 4.6 mph - N/A   Overcast